User: anonymous   Login
Location: El Carrer d�Abaix
(41.5797°N, 2.1791°E)
Time: 17:47:52
(UTC+00:00)
Language:

Terra - Orbit

View from above orbital plane
View from above orbital plane
View from above satellite
View from above satellite

Ground track
Ground track

The orbit data is extracted from the following two-line orbital elements,

1 25994U 99068A   20228.50091612 -.00000666  00000-0 -13778-3 0  9998
2 25994  98.2096 301.9565 0001219 100.0623 260.0718 14.57108463 98919
Epoch (UTC): 15 August 2020 12:01:19
Eccentricity: 0.0001219
inclination: 98.2096°
perigee height: 701 km
apogee height: 703 km
right ascension of ascending node: 301.9565°
argument of perigee: 100.0623°
revolutions per day: 14.57108463
mean anomaly at epoch: 260.0718°
orbit number at epoch: 9891

The dashed part of the orbit path shows where the satellite is in the earth's shadow,  

DLR